Other Public Products
Issued by NWS Grand Forks, ND

Home | Current Version | Previous Version | Graphics & Text | Print | Product List | Glossary On
Versions: 1 2 3 4 5 6 7 8 9 10 11 12 13 14 15 16 17 18 19 20 21 22 23 24 25 26 27 28 29 30 31 32 33 34 35 36 37 38 39 40 41 42 43 44 45 46 47 48 49 50
000
FPUS83 KFGF 160010
OPUFGF
PRAIRIE TO PINES WEATHER ROUNDUP
NATIONAL WEATHER SERVICE EASTERN NORTH DAKOTA/GRAND FORKS ND
700 PM CDT MON SEP 15 2014

 **SATELLITE DATA USED TO AUGMENT SKY COVER AT AUTOMATED STATIONS**
 *****  WEATHER ACROSS EASTERN NORTH DAKOTA  *****

CITY           SKY/WX    TMP DP  RH WIND       PRES   REMARKS
GRAND FORKS    PTCLDY    64  40  41 SW7       30.08F
6HR MIN TEMP:  62; 6HR MAX TEMP:  69;

GRAND FORKS AF CLEAR     63  41  44 W6        30.09F
GRAND CITY NWS   N/A     61 N/A N/A W5          N/A
BUXTON         NOT AVBL
DEVILS LAKE    CLEAR     64  37  36 W10       30.08F
6HR MIN TEMP:  61; 6HR MAX TEMP:  66;

FARGO          CLEAR     61  38  42 SW8       30.14F
6HR MIN TEMP:  61; 6HR MAX TEMP:  66;

WAHPETON ARPT  CLEAR     59  36  41 W6        30.18F
$$

 *****  WEATHER ACROSS CENTRAL AND WESTERN NORTH DAKOTA  *****

CITY           SKY/WX    TMP DP  RH WIND       PRES   REMARKS
JAMESTOWN      CLEAR     61  38  42 SW6       30.14F
6HR MIN TEMP:  60; 6HR MAX TEMP:  64;

BISMARCK       CLEAR     66  35  31 S8        30.14F
6HR MIN TEMP:  64; 6HR MAX TEMP:  69;

MINOT          CLEAR     65  33  30 SW7       30.08F
6HR MIN TEMP:  64; 6HR MAX TEMP:  68;

MINOT AFB      CLEAR     65  35  32 W5        30.07F
6HR MIN TEMP:  64; 6HR MAX TEMP:  67;

GARRISON         N/A     64  39  39 SW6       30.10F
6HR MIN TEMP:  63; 6HR MAX TEMP:  67;

WILLISTON      SUNNY     67  31  26 SW7       30.08S
6HR MIN TEMP:  62; 6HR MAX TEMP:  68;

DICKINSON      CLEAR     64  37  36 SW7       30.10F
6HR MIN TEMP:  62; 6HR MAX TEMP:  66;

HETTINGER      CLEAR     63  37  38 S8        30.14F
6HR MIN TEMP:  60; 6HR MAX TEMP:  66;

$$

 *****  OTHER OBSERVATIONS NORTHEAST NORTH DAKOTA  *****

CITY           SKY/WX    TMP DP  RH WIND       PRES   REMARKS
WALHALLA         N/A     63  34  34 NW6       30.06F
LANGDON        FAIR      63  34  34 W12       30.08S
CAVALIER       FAIR      63  37  39 NW7       30.06S
GRAFTON        FAIR      63  39  42 W10       30.07S
CANDO          FAIR      63  36  36 W6        30.09F
FORT TOTTEN    NOT AVBL
ROLLA          FAIR      59  37  44 W6        30.09F
RUGBY          FAIR      63  39  42 W7        30.09S
 ***** THE ABOVE OBSERVATIONS ARE NON NWS ARE NOT QUALITY
        CONTROLLED AND MAY MIS-REPORT RAIN FOR SNOW...
$$

 *****  OTHER OBSERVATIONS SOUTHEAST NORTH DAKOTA *****

CITY           SKY/WX    TMP DP  RH WIND       PRES   REMARKS
COOPERSTOWN    NOT AVBL
VALLEY CITY    FAIR      61  37  41 SW9       30.15F
OAKES            N/A     63  39  42 SW6       30.17F
GWINNER        CLEAR     61  39  44 S6        30.18F
SHEYENNE NWR     N/A     63  38  40 SW5       29.95S
BUFFALO        NOT AVBL
WYNDMERE         N/A     63  37  39 SW3         N/A
 ***** THE ABOVE OBSERVATIONS ARE NON NWS ARE NOT QUALITY
       CONTROLLED AND MAY MIS-REPORT RAIN FOR SNOW...
$$

  *****  WEATHER ACROSS NORTHERN MINNESOTA  *****

CITY           SKY/WX    TMP DP  RH WIND       PRES   REMARKS
FLAG ISLAND    CLEAR     59  37  44 SW9       30.05F
WARROAD        CLEAR     59  39  47 SW3       30.08F
ROSEAU         PTCLDY    57  41  54 SW5       30.07F
HALLOCK        CLEAR     64  36  34 W9        30.05S
THF RVR FALLS  PTCLDY    61  39  44 SW7       30.10S
6HR MIN TEMP:  57; 6HR MAX TEMP:  64;

HALSTAD          N/A     60  36  39 SW8         N/A
FOSSTON        MOCLDY    59  43  55 CALM      30.13F
BAUDETTE       CLEAR     56  37  49 CALM      30.09F
6HR MIN TEMP:  56; 6HR MAX TEMP:  61;

WASKISH        MOCLDY    55  45  67 CALM      30.11F
CROOKSTON      CLEAR     63  39  42 SW7       30.11S
$$
  *****  WEATHER ACROSS CENTRAL AND WEST MINNESOTA  *****

CITY           SKY/WX    TMP DP  RH WIND       PRES   REMARKS
BEMIDJI        PTCLDY    55  39  53 SW3       30.14S
PARK RAPIDS    CLEAR     56  35  45 W7        30.16F
6HR MIN TEMP:  56; 6HR MAX TEMP:  61;

WADENA         CLEAR     55  36  47 CALM      30.18F
DETROIT LAKES  CLEAR     59  37  44 W3        30.17F
MOORHEAD       CLEAR     63  36  36 SW5       30.16F
FERGUS FALLS   CLEAR     59  36  41 W3        30.18F
ELBOW LAKE     FAIR      57  38  48 W3        30.19F
6HR MIN TEMP:  57; 6HR MAX TEMP:  60;

MORRIS MN      CLEAR     61  36  39 CALM      30.20S
STAPLES        CLEAR     55  34  44 W3        30.18F
WHEATON        CLEAR     59  37  44 CALM      30.21F
$$
  *****  WEATHER ELSEWHERE ACROSS MINNESOTA  *****

CITY           SKY/WX    TMP DP  RH WIND       PRES   REMARKS
DULUTH         PTCLDY    53  36  52 W6        30.15S
6HR MIN TEMP:  53; 6HR MAX TEMP:  59;

INTRNTL FALLS  CLEAR     53  37  54 W5        30.09F
6HR MIN TEMP:  53; 6HR MAX TEMP:  61;

ELY            CLEAR     52  37  58 W3        30.12S
CLOQUET        CLEAR     54  36  50 CALM      30.16S
BRAINERD       CLEAR     55  35  47 CALM      30.18S
6HR MIN TEMP:  54; 6HR MAX TEMP:  60;

HIBBING        PTCLDY    54  36  50 W3        30.14F
6HR MIN TEMP:  53; 6HR MAX TEMP:  61;

ALEXANDRIA     CLEAR     56  37  49 NW5       30.21S
6HR MIN TEMP:  55; 6HR MAX TEMP:  61;

SAINT CLOUD    PTCLDY    59  38  45 NW5       30.19S
6HR MIN TEMP:  59; 6HR MAX TEMP:  64;

MINNEAPOLIS    PTCLDY    57  37  47 NW7       30.20R
6HR MIN TEMP:  57; 6HR MAX TEMP:  62;

$$

  *****  WEATHER ACROSS SOUTH DAKOTA  *****

CITY           SKY/WX    TMP DP  RH WIND       PRES   REMARKS
SIOUX FALLS    CLEAR     60  44  55 NW3       30.23S
6HR MIN TEMP:  56; 6HR MAX TEMP:  64;

BROOKINGS      NOT AVBL
WATERTOWN      CLEAR     57  35  43 CALM      30.21F
6HR MIN TEMP:  57; 6HR MAX TEMP:  61;

HURON          CLEAR     62  33  33 CALM      30.22S
6HR MIN TEMP:  61; 6HR MAX TEMP:  65;

SISSETON         N/A     61  38  42 NW3       30.19F
ABERDEEN       CLEAR     60  39  45 SW5       30.20S
6HR MIN TEMP:  59; 6HR MAX TEMP:  64;

MITCHELL       CLEAR     62  41  46 CALM      30.23F
PIERRE         CLEAR     62  39  42 SE5       30.18F
6HR MIN TEMP:  59; 6HR MAX TEMP:  66;

MOBRIDGE       CLEAR     63  39  41 S9        30.15F
RAPID CITY     SUNNY     66  44  45 S14       30.14F
6HR MIN TEMP:  59; 6HR MAX TEMP:  68;

$$

  *****  SOME WEATHER IN NEARBY STATES *****

CITY           SKY/WX    TMP DP  RH WIND       PRES   REMARKS
GLASGOW MT     SUNNY     68  36  30 CALM      30.04F
6HR MIN TEMP:  63; 6HR MAX TEMP:  69;

GREAT FALLS MT SUNNY     75  37  25 E6        30.02F
6HR MIN TEMP:  66; 6HR MAX TEMP:  78;

CHEYENNE WY    SUNNY     65  40  39 S14       30.27S
6HR MIN TEMP:  64; 6HR MAX TEMP:  70;

SCOTTSBLUFF NE SUNNY     70  44  39 SE16      30.18F
6HR MIN TEMP:  60; 6HR MAX TEMP:  73;

OMAHA NE       MOCLDY    60  46  59 N6        30.24S
6HR MIN TEMP:  60; 6HR MAX TEMP:  65;

DES MOINES IA  MOCLDY    60  46  59 N5        30.21R
6HR MIN TEMP:  58; 6HR MAX TEMP:  65;

DAVENPORT IA   MOCLDY    55  47  74 N9        30.18R
6HR MIN TEMP:  55; 6HR MAX TEMP:  67;

CHICAGO IL     MOCLDY    57  51  80 NE8       30.11S
6HR MIN TEMP:  57; 6HR MAX TEMP:  62; 6HR PCP: TRACE;

EAU CLAIRE WI  CLEAR     55  39  54 NW5       30.17S
6HR MIN TEMP:  55; 6HR MAX TEMP:  63;

LA CROSSE WI   CLEAR     57  43  59 NW7       30.17R
6HR MIN TEMP:  55; 6HR MAX TEMP:  64;

$$

  *****  SOME NATIONAL WEATHER *****

CITY           SKY/WX    TMP DP  RH WIND       PRES   REMARKS


USA.gov is the U.S. government's official web portal to all federal, state and local government web resources and services.